This is the latest recevied weather packets stored in our database for station/object VA3WWD-2. If no packets are shown the sender has not sent any weather packets the latest 10 day(s).
| Time | Temp. | Humidity | Pressure | Rain* | Wind** | Luminosity | Snow |
|---|---|---|---|---|---|---|---|
| 1777931741 | 20.56° C | 22% | - | 0 mm | 0 m/s | - | - |
| 1777931443 | 20° C | 22% | - | 0 mm | 0 m/s | - | - |
| 1777931142 | 21.11° C | 19% | - | 0 mm | 0 m/s | - | - |
| 1777930844 | 21.67° C | 20% | - | 0 mm | 0 m/s | - | - |
| 1777930546 | 20.56° C | 20% | - | 0 mm | 0 m/s | - | - |
| 1777930245 | 20.56° C | 14% | - | 0 mm | 0 m/s | - | - |
| 1777929947 | 20° C | 12% | - | 0 mm | 0 m/s | - | - |
| 1777929649 | 21.11° C | 11% | - | 0 mm | 0 m/s | - | - |
| 1777929348 | 21.11° C | 12% | - | 0 mm | 0 m/s | - | - |
| 1777929050 | 21.67° C | 10% | - | 0 mm | 0 m/s | - | - |
| 1777928752 | 21.67° C | 10% | - | 0 mm | 0 m/s | - | - |
| 1777928451 | 21.11° C | 11% | - | 0 mm | 0 m/s | - | - |
| 1777927855 | 21.67° C | 9% | - | 0 mm | 0 m/s | - | - |
| 1777927554 | 21.67° C | 11% | - | 0 mm | 0 m/s | - | - |
| 1777927256 | 21.11° C | 10% | - | 0 mm | 0 m/s | - | - |
| 1777926958 | 22.22° C | 12% | - | 0 mm | 0 m/s | - | - |
| 1777926657 | 21.67° C | 10% | - | 0 mm | 0 m/s | - | - |
| 1777926359 | 21.67° C | 11% | - | 0 mm | 0 m/s | - | - |
| 1777926061 | 22.22° C | 10% | - | 0 mm | 0 m/s | - | - |
| 1777925462 | 21.67° C | 11% | - | 0 mm | 0 m/s | - | - |
| 1777925164 | 21.11° C | 14% | - | 0 mm | 0 m/s | - | - |
| 1777924863 | 21.67° C | 12% | - | 0 mm | 0 m/s | - | - |
| 1777924565 | 21.67° C | 10% | - | 0 mm | 0 m/s | - | - |
| 1777924267 | 21.11° C | 14% | - | 0 mm | 0 m/s | - | - |
| 1777923966 | 20.56° C | 16% | - | 0 mm | 0 m/s | - | - |
* Rain latest hour (hover to see other rain measurements)
** Current wind speed in m/s (hover to see current wind gust speed)